Selawik, AK

6:43 AM AKST on December 08, 2019 (GMT -0900)
Selawik

Weather History for PASK - September, 2019

Change the Weather History Date:

Saturday, September 7, 2019

  Actual Average Record
Temperature  
Mean Temperature 54 °F -  
Max Temperature 57 °F 49 °F 62 °F (1997)
Min Temperature 50 °F 38 °F 33 °F (2014)
Degree Days  
Heating Degree Days 12    
Growing Degree Days 4 (Base 50)    
Moisture  
Dew Point 49 °F    
Average Humidity 86    
Maximum Humidity 96    
Minimum Humidity 72    
Precipitation  
Precipitation 0.06 in - - ()
Sea Level Pressure  
Sea Level Pressure 29.78 in    
Wind  
Wind Speed 8 mph ()    
Max Wind Speed 13 mph    
Max Gust Speed 17 mph    
Visibility 10.0 miles    
Events Rain    
Averages and records for this station are not official NWS values.
T = Trace of Precipitation, MM = Missing Value Source: Averaged Metar Reports

Daily Weather History Graph

Daily Weather History Graph

Search for Another Location

Airport or City:

Astronomy

Sep. 07, 2019 Rise Set
Actual Time 7:32 AM AKDT 9:40 PM AKDT
Civil Twilight 6:35 AM AKDT 10:37 PM AKDT
Nautical Twilight 5:16 AM AKDT 11:55 PM AKDT
Astronomical Twilight 3:10 AM AKDT 2:05 AM AKDT
Moon 9:13 PM AKDT (9/7) 11:18 PM AKDT (9/7)
Length of Visible Light 16h 01m
Length of Day
14h 07m
Waxing Gibbous, 67% of the Moon is Illuminated
Sep 7
Waxing Gibbous
Sep 13
Full
Sep 21
Last Quarter
Sep 28
New
Oct 5
First Quarter

Hourly Weather History & Observations

Time (AKDT) Temp. Dew Point Humidity Pressure Visibility Wind Dir Wind Speed Gust Speed Precip Events Conditions
12:56 AM 52.0 °F 48.9 °F 89% 29.88 in 10.0 mi ESE 8.1 mph - 0.00 in Rain Light Rain
1:56 AM 51.1 °F 48.9 °F 92% 29.87 in 10.0 mi ESE 4.6 mph - 0.01 in Rain Light Rain
2:56 AM 51.1 °F 48.9 °F 92% 29.87 in 10.0 mi East 8.1 mph - 0.00 in   Overcast
3:56 AM 51.1 °F 48.0 °F 89% 29.86 in 10.0 mi East 8.1 mph - 0.00 in   Overcast
4:56 AM 51.1 °F 48.0 °F 89% 29.85 in 10.0 mi ENE 6.9 mph - 0.00 in Rain Light Rain
5:56 AM 50.0 °F 48.0 °F 93% 29.83 in 10.0 mi NE 8.1 mph - 0.00 in   Overcast
6:56 AM 50.0 °F 48.0 °F 93% 29.83 in 10.0 mi ENE 9.2 mph - N/A   Overcast
7:56 AM 50.0 °F 48.9 °F 96% 29.81 in 10.0 mi East 11.5 mph - 0.02 in Rain Light Rain
8:56 AM 50.0 °F 48.0 °F 93% 29.81 in 10.0 mi ENE 9.2 mph - 0.00 in Rain Light Rain
9:56 AM 51.1 °F 48.9 °F 92% 29.80 in 10.0 mi East 12.7 mph - 0.01 in Rain Light Rain
10:56 AM 51.1 °F 48.9 °F 92% 29.80 in 10.0 mi ENE 10.4 mph - 0.00 in Rain Light Rain
11:56 AM 52.0 °F 50.0 °F 93% 29.80 in 10.0 mi ENE 9.2 mph - 0.01 in Rain Light Rain
12:56 PM 53.1 °F 50.0 °F 89% 29.78 in 10.0 mi ENE 6.9 mph - 0.00 in Rain Light Rain
1:56 PM 54.0 °F 51.1 °F 90% 29.76 in 10.0 mi NE 5.8 mph - 0.00 in   Overcast
2:56 PM 55.9 °F 51.1 °F 84% 29.75 in 10.0 mi ENE 11.5 mph - 0.00 in   Overcast
3:56 PM 57.0 °F 51.1 °F 81% 29.73 in 10.0 mi ENE 11.5 mph - 0.00 in   Mostly Cloudy
4:56 PM 57.9 °F 48.9 °F 72% 29.72 in 10.0 mi ESE 10.4 mph - N/A   Scattered Clouds
5:56 PM 57.9 °F 48.9 °F 72% - 10.0 mi SE 8.1 mph - 0.00 in Rain Light Rain
6:56 PM 55.9 °F 48.9 °F 77% 29.71 in 10.0 mi SE 9.2 mph - 0.00 in Rain Light Rain
7:56 PM 55.9 °F 48.0 °F 75% 29.71 in 10.0 mi SE 10.4 mph - 0.01 in   Overcast
8:56 PM 55.0 °F 48.9 °F 80% 29.71 in 10.0 mi ESE 9.2 mph - N/A   Overcast
9:56 PM 55.0 °F 48.9 °F 80% 29.72 in 10.0 mi ESE 10.4 mph - N/A   Overcast
10:56 PM 54.0 °F 48.9 °F 83% 29.72 in 10.0 mi East 11.5 mph - N/A   Overcast
11:56 PM 53.1 °F 50.0 °F 89% 29.71 in 10.0 mi East 11.5 mph 17.3 mph 0.00 in Rain Light Rain